contact:dominique.lefevre@mio.osupytheas.fr, maurice.libes@osupytheas.fr, didier.mallarino@osupytheas.fr
Project:EMSO http://www.emso-fr.org/EMSO-France
Depth: 2436.0 m
Title:EMSO Ligure Ouest : Data MII capteur CSTAR
DateTime,Latitude,Longitude,Instrument_Serial,Reference_Counts,Signal_Counts,Corrected_Signal_raw_counts,Calculated_Beam_c_inverse_meters,Internal_thermistor_counts
DateTime,Latitude,Longitude,Instrument_Serial,Reference_Counts,Signal_Counts,Corrected_Signal_raw_counts,Calculated_Beam_c_inverse_meters,Internal_thermistor_counts
2023-06-16T00:01:00,42.805,6.029,CST-1368DR,4288,4692,11614,01.184,552
2023-06-16T00:04:01,42.805,6.029,CST-1368DR,4288,4691,11613,01.185,552
2023-06-16T00:07:03,42.805,6.029,CST-1368DR,4288,4691,11613,01.185,552
2023-06-16T00:10:05,42.805,6.029,CST-1368DR,4288,4690,11611,01.185,552
2023-06-16T00:13:06,42.805,6.029,CST-1368DR,4288,4692,11616,01.184,552
2023-06-16T00:16:08,42.805,6.029,CST-1368DR,4288,4691,11614,01.184,552
2023-06-16T00:19:09,42.805,6.029,CST-1368DR,4288,4691,11614,01.184,552
2023-06-16T00:22:11,42.805,6.029,CST-1368DR,4288,4691,11613,01.185,552
2023-06-16T00:25:12,42.805,6.029,CST-1368DR,4288,4691,11613,01.185,552
2023-06-16T00:28:14,42.805,6.029,CST-1368DR,4288,4690,11610,01.186,552
2023-06-16T00:31:16,42.805,6.029,CST-1368DR,4288,4692,11614,01.184,552
2023-06-16T00:34:17,42.805,6.029,CST-1368DR,4287,4690,11614,01.184,552
2023-06-16T00:37:19,42.805,6.029,CST-1368DR,4288,4690,11610,01.186,552
2023-06-16T00:40:20,42.805,6.029,CST-1368DR,4288,4691,11613,01.185,552
2023-06-16T00:43:22,42.805,6.029,CST-1368DR,4288,4691,11614,01.184,552
2023-06-16T00:46:23,42.805,6.029,CST-1368DR,4288,4690,11611,01.185,552
2023-06-16T00:49:25,42.805,6.029,CST-1368DR,4288,4690,11610,01.186,552
2023-06-16T00:52:27,42.805,6.029,CST-1368DR,4288,4690,11611,01.185,552
2023-06-16T00:55:28,42.805,6.029,CST-1368DR,4288,4691,11613,01.185,552
2023-06-16T00:58:30,42.805,6.029,CST-1368DR,4288,4690,11610,01.186,552
2023-06-16T01:01:31,42.805,6.029,CST-1368DR,4288,4691,11613,01.185,552
2023-06-16T01:04:33,42.805,6.029,CST-1368DR,4288,4689,11609,01.186,552
2023-06-16T01:07:35,42.805,6.029,CST-1368DR,4288,4691,11613,01.185,552
2023-06-16T01:10:36,42.805,6.029,CST-1368DR,4288,4691,11613,01.185,552
2023-06-16T01:13:38,42.805,6.029,CST-1368DR,4288,4690,11610,01.186,552
2023-06-16T01:16:39,42.805,6.029,CST-1368DR,4288,4690,11611,01.185,552
2023-06-16T01:19:41,42.805,6.029,CST-1368DR,4288,4691,11614,01.184,552
2023-06-16T01:22:42,42.805,6.029,CST-1368DR,4288,4691,11614,01.184,552
2023-06-16T01:25:44,42.805,6.029,CST-1368DR,4288,4691,11614,01.184,552
2023-06-16T01:28:46,42.805,6.029,CST-1368DR,4288,4690,11611,01.185,552
2023-06-16T01:31:47,42.805,6.029,CST-1368DR,4288,4691,11613,01.185,552
2023-06-16T01:34:49,42.805,6.029,CST-1368DR,4288,4692,11614,01.184,552
2023-06-16T01:37:50,42.805,6.029,CST-1368DR,4288,4693,11617,01.183,552
2023-06-16T01:40:52,42.805,6.029,CST-1368DR,4288,4690,11610,01.186,552
2023-06-16T01:43:53,42.805,6.029,CST-1368DR,4288,4692,11615,01.184,552
2023-06-16T01:46:55,42.805,6.029,CST-1368DR,4288,4692,11616,01.184,552
2023-06-16T01:49:57,42.805,6.029,CST-1368DR,4288,4692,11615,01.184,552
2023-06-16T01:52:58,42.805,6.029,CST-1368DR,4288,4691,11613,01.185,552
2023-06-16T01:56:00,42.805,6.029,CST-1368DR,4288,4692,11616,01.184,552
2023-06-16T01:59:01,42.805,6.029,CST-1368DR,4288,4691,11613,01.185,552
2023-06-16T02:02:03,42.805,6.029,CST-1368DR,4288,4691,11613,01.185,552
2023-06-16T02:05:05,42.805,6.029,CST-1368DR,4288,4691,11614,01.184,552
2023-06-16T02:08:06,42.805,6.029,CST-1368DR,4288,4690,11611,01.185,552
2023-06-16T02:11:08,42.805,6.029,CST-1368DR,4288,4692,11615,01.184,552
2023-06-16T02:14:09,42.805,6.029,CST-1368DR,4288,4691,11614,01.184,552
2023-06-16T02:17:11,42.805,6.029,CST-1368DR,4288,4692,11614,01.184,552
2023-06-16T02:20:12,42.805,6.029,CST-1368DR,4288,4690,11610,01.186,552
2023-06-16T02:23:14,42.805,6.029,CST-1368DR,4288,4690,11610,01.186,552
2023-06-16T02:26:16,42.805,6.029,CST-1368DR,4288,4690,11611,01.185,552
2023-06-16T02:29:17,42.805,6.029,CST-1368DR,4288,4693,11619,01.183,552
2023-06-16T02:32:19,42.805,6.029,CST-1368DR,4288,4691,11613,01.185,552
2023-06-16T02:35:20,42.805,6.029,CST-1368DR,4288,4691,11614,01.184,552
2023-06-16T02:38:22,42.805,6.029,CST-1368DR,4288,4690,11611,01.185,552
2023-06-16T02:41:23,42.805,6.029,CST-1368DR,4288,4691,11613,01.185,552
2023-06-16T02:44:25,42.805,6.029,CST-1368DR,4288,4691,11613,01.185,552
2023-06-16T02:47:27,42.805,6.029,CST-1368DR,4288,4690,11611,01.185,552
2023-06-16T02:50:28,42.805,6.029,CST-1368DR,4288,4691,11613,01.185,552
2023-06-16T02:53:30,42.805,6.029,CST-1368DR,4288,4692,11614,01.184,552
2023-06-16T02:56:31,42.805,6.029,CST-1368DR,4288,4692,11616,01.184,552
2023-06-16T02:59:33,42.805,6.029,CST-1368DR,4288,4692,11614,01.184,552
2023-06-16T03:02:34,42.805,6.029,CST-1368DR,4288,4690,11611,01.185,552
2023-06-16T03:05:36,42.805,6.029,CST-1368DR,4288,4691,11613,01.185,552
2023-06-16T03:08:38,42.805,6.029,CST-1368DR,4288,4692,11614,01.184,552
2023-06-16T03:11:39,42.805,6.029,CST-1368DR,4288,4691,11613,01.185,552
2023-06-16T03:14:41,42.805,6.029,CST-1368DR,4288,4692,11614,01.184,552
2023-06-16T03:17:42,42.805,6.029,CST-1368DR,4288,4691,11613,01.185,552
2023-06-16T03:20:44,42.805,6.029,CST-1368DR,4288,4692,11615,01.184,552
2023-06-16T03:23:46,42.805,6.029,CST-1368DR,4287,4692,11619,01.183,552
2023-06-16T03:26:47,42.805,6.029,CST-1368DR,4288,4689,11609,01.186,552
2023-06-16T03:29:49,42.805,6.029,CST-1368DR,4288,4690,11611,01.185,552
2023-06-16T03:32:50,42.805,6.029,CST-1368DR,4288,4689,11609,01.186,552
2023-06-16T03:35:52,42.805,6.029,CST-1368DR,4288,4690,11611,01.185,552
2023-06-16T03:38:53,42.805,6.029,CST-1368DR,4288,4690,11611,01.185,552
2023-06-16T03:41:55,42.805,6.029,CST-1368DR,4288,4691,11613,01.185,552
2023-06-16T03:44:57,42.805,6.029,CST-1368DR,4288,4690,11611,01.185,552
2023-06-16T03:47:58,42.805,6.029,CST-1368DR,4288,4691,11613,01.185,552
2023-06-16T03:51:00,42.805,6.029,CST-1368DR,4288,4692,11614,01.184,552
2023-06-16T03:54:01,42.805,6.029,CST-1368DR,4288,4689,11609,01.186,552
2023-06-16T03:57:03,42.805,6.029,CST-1368DR,4288,4690,11610,01.186,552
2023-06-16T04:00:04,42.805,6.029,CST-1368DR,4288,4690,11611,01.185,552
2023-06-16T04:03:06,42.805,6.029,CST-1368DR,4288,4690,11611,01.185,552
2023-06-16T04:06:08,42.805,6.029,CST-1368DR,4288,4691,11613,01.185,552
2023-06-16T04:09:09,42.805,6.029,CST-1368DR,4288,4690,11610,01.186,552
2023-06-16T04:12:11,42.805,6.029,CST-1368DR,4288,4690,11611,01.185,552
2023-06-16T04:15:12,42.805,6.029,CST-1368DR,4288,4690,11610,01.186,552
2023-06-16T04:18:14,42.805,6.029,CST-1368DR,4288,4691,11613,01.185,552
2023-06-16T04:21:16,42.805,6.029,CST-1368DR,4288,4692,11616,01.184,552
2023-06-16T04:24:17,42.805,6.029,CST-1368DR,4288,4690,11611,01.185,552
2023-06-16T04:27:19,42.805,6.029,CST-1368DR,4288,4691,11613,01.185,552
2023-06-16T04:30:20,42.805,6.029,CST-1368DR,4288,4691,11613,01.185,552
2023-06-16T04:33:22,42.805,6.029,CST-1368DR,4288,4692,11614,01.184,552
2023-06-16T04:36:23,42.805,6.029,CST-1368DR,4288,4691,11613,01.185,552
2023-06-16T04:39:25,42.805,6.029,CST-1368DR,4288,4692,11614,01.184,552
2023-06-16T04:42:27,42.805,6.029,CST-1368DR,4288,4691,11613,01.185,552
2023-06-16T04:45:28,42.805,6.029,CST-1368DR,4288,4692,11614,01.184,552
2023-06-16T04:48:30,42.805,6.029,CST-1368DR,4288,4691,11613,01.185,552
2023-06-16T04:51:31,42.805,6.029,CST-1368DR,4288,4690,11611,01.185,552
2023-06-16T04:54:33,42.805,6.029,CST-1368DR,4288,4691,11613,01.185,552
2023-06-16T04:57:34,42.805,6.029,CST-1368DR,4288,4690,11611,01.185,552
2023-06-16T05:00:36,42.805,6.029,CST-1368DR,4288,4692,11616,01.184,552
2023-06-16T05:03:38,42.805,6.029,CST-1368DR,4288,4691,11613,01.185,552
2023-06-16T05:06:39,42.805,6.029,CST-1368DR,4288,4692,11616,01.184,552
2023-06-16T05:09:41,42.805,6.029,CST-1368DR,4288,4693,11618,01.183,552
2023-06-16T05:12:42,42.805,6.029,CST-1368DR,4288,4693,11617,01.183,552
2023-06-16T05:15:44,42.805,6.029,CST-1368DR,4288,4693,11619,01.183,552
2023-06-16T05:18:46,42.805,6.029,CST-1368DR,4287,4693,11620,01.182,552
2023-06-16T05:21:47,42.805,6.029,CST-1368DR,4287,4693,11620,01.182,552
2023-06-16T05:24:49,42.805,6.029,CST-1368DR,4288,4692,11616,01.184,552
2023-06-16T05:27:50,42.805,6.029,CST-1368DR,4287,4690,11612,01.185,552
2023-06-16T05:30:52,42.805,6.029,CST-1368DR,4288,4692,11614,01.184,552
2023-06-16T05:33:53,42.805,6.029,CST-1368DR,4288,4692,11616,01.184,552
2023-06-16T05:36:55,42.805,6.029,CST-1368DR,4288,4691,11614,01.184,552
2023-06-16T05:39:57,42.805,6.029,CST-1368DR,4288,4692,11615,01.184,552
2023-06-16T05:42:58,42.805,6.029,CST-1368DR,4287,4691,11616,01.184,552
2023-06-16T05:46:00,42.805,6.029,CST-1368DR,4288,4691,11613,01.185,552
2023-06-16T05:49:01,42.805,6.029,CST-1368DR,4287,4690,11613,01.185,552
2023-06-16T05:52:03,42.805,6.029,CST-1368DR,4287,4692,11617,01.183,552
2023-06-16T05:55:04,42.805,6.029,CST-1368DR,4287,4692,11618,01.183,552
2023-06-16T05:58:06,42.805,6.029,CST-1368DR,4287,4690,11612,01.185,552
2023-06-16T06:01:08,42.805,6.029,CST-1368DR,4288,4691,11613,01.185,552
2023-06-16T06:04:09,42.805,6.029,CST-1368DR,4288,4692,11614,01.184,552
2023-06-16T06:07:11,42.805,6.029,CST-1368DR,4287,4691,11616,01.184,552
2023-06-16T06:10:12,42.805,6.029,CST-1368DR,4288,4691,11614,01.184,552
2023-06-16T06:13:14,42.805,6.029,CST-1368DR,4288,4691,11613,01.185,552
2023-06-16T06:16:16,42.805,6.029,CST-1368DR,4287,4673,11571,01.199,552
2023-06-16T06:19:17,42.805,6.029,CST-1368DR,4287,4691,11615,01.184,552
2023-06-16T06:22:19,42.805,6.029,CST-1368DR,4288,4691,11614,01.184,552
2023-06-16T06:25:20,42.805,6.029,CST-1368DR,4287,4688,11607,01.187,552
2023-06-16T06:28:22,42.805,6.029,CST-1368DR,4287,4687,11605,01.187,552
2023-06-16T06:31:26,42.805,6.029,CST-1368DR,4287,4688,11608,01.186,552
2023-06-16T06:34:28,42.805,6.029,CST-1368DR,4287,4686,11603,01.188,552
2023-06-16T06:37:29,42.805,6.029,CST-1368DR,4287,4686,11604,01.188,552
2023-06-16T06:40:31,42.805,6.029,CST-1368DR,4287,4686,11604,01.188,552
2023-06-16T06:43:32,42.805,6.029,CST-1368DR,4287,4686,11604,01.188,552
2023-06-16T06:46:34,42.805,6.029,CST-1368DR,4287,4686,11604,01.188,552
2023-06-16T06:49:36,42.805,6.029,CST-1368DR,4287,4685,11602,01.188,552
2023-06-16T06:52:37,42.805,6.029,CST-1368DR,4287,4686,11603,01.188,552
2023-06-16T06:55:39,42.805,6.029,CST-1368DR,4287,4686,11603,01.188,552
2023-06-16T06:58:40,42.805,6.029,CST-1368DR,4288,4687,11602,01.188,552
2023-06-16T07:01:42,42.805,6.029,CST-1368DR,4288,4687,11602,01.188,552
2023-06-16T07:04:44,42.805,6.029,CST-1368DR,4287,4686,11603,01.188,552
2023-06-16T07:07:45,42.805,6.029,CST-1368DR,4287,4686,11603,01.188,552
2023-06-16T07:10:47,42.805,6.029,CST-1368DR,4287,4675,11576,01.197,552
2023-06-16T07:13:48,42.805,6.029,CST-1368DR,4287,4680,11587,01.194,552
2023-06-16T07:16:50,42.805,6.029,CST-1368DR,4287,4678,11583,01.195,552
2023-06-16T07:19:51,42.805,6.029,CST-1368DR,4287,4681,11590,01.193,552
2023-06-16T07:22:53,42.805,6.029,CST-1368DR,4287,4680,11587,01.194,552
2023-06-16T07:25:55,42.805,6.029,CST-1368DR,4287,4685,11601,01.189,552
2023-06-16T07:28:56,42.805,6.029,CST-1368DR,4287,4692,11618,01.183,552
2023-06-16T07:31:58,42.805,6.029,CST-1368DR,4288,4691,11613,01.185,552
2023-06-16T07:34:59,42.805,6.029,CST-1368DR,4287,4689,11611,01.185,552
2023-06-16T07:38:01,42.805,6.029,CST-1368DR,4287,4686,11603,01.188,552
2023-06-16T07:41:02,42.805,6.029,CST-1368DR,4287,4688,11608,01.186,552
2023-06-16T07:44:04,42.805,6.029,CST-1368DR,4287,4687,11605,01.187,552
2023-06-16T07:47:06,42.805,6.029,CST-1368DR,4287,4687,11606,01.187,552
2023-06-16T07:50:07,42.805,6.029,CST-1368DR,4287,4687,11605,01.187,552
2023-06-16T07:53:09,42.805,6.029,CST-1368DR,4288,4687,11603,01.188,552
2023-06-16T07:56:10,42.805,6.029,CST-1368DR,4287,4686,11603,01.188,552
2023-06-16T07:59:12,42.805,6.029,CST-1368DR,4287,4686,11603,01.188,552
2023-06-16T08:02:14,42.805,6.029,CST-1368DR,4287,4686,11604,01.188,552
2023-06-16T08:05:15,42.805,6.029,CST-1368DR,4287,4685,11602,01.188,552
2023-06-16T08:08:17,42.805,6.029,CST-1368DR,4287,4686,11604,01.188,552
2023-06-16T08:11:18,42.805,6.029,CST-1368DR,4287,4685,11601,01.189,552
2023-06-16T08:14:20,42.805,6.029,CST-1368DR,4287,4683,11597,01.190,552
2023-06-16T08:17:21,42.805,6.029,CST-1368DR,4287,4684,11598,01.190,552
2023-06-16T08:20:23,42.805,6.029,CST-1368DR,4287,4684,11597,01.190,552
2023-06-16T08:23:25,42.805,6.029,CST-1368DR,4287,4682,11592,01.192,552
2023-06-16T08:26:26,42.805,6.029,CST-1368DR,4287,4684,11597,01.190,552
2023-06-16T08:29:28,42.805,6.029,CST-1368DR,4287,4684,11598,01.190,552
2023-06-16T08:32:29,42.805,6.029,CST-1368DR,4287,4683,11595,01.191,552
2023-06-16T08:35:31,42.805,6.029,CST-1368DR,4287,4684,11599,01.190,552
2023-06-16T08:38:32,42.805,6.029,CST-1368DR,4287,4682,11594,01.191,552
2023-06-16T08:41:34,42.805,6.029,CST-1368DR,4287,4683,11597,01.190,552
2023-06-16T08:44:35,42.805,6.029,CST-1368DR,4287,4684,11597,01.190,552
2023-06-16T08:47:37,42.805,6.029,CST-1368DR,4287,4684,11598,01.190,552
2023-06-16T08:50:38,42.805,6.029,CST-1368DR,4287,4684,11597,01.190,552
2023-06-16T08:53:40,42.805,6.029,CST-1368DR,4287,4683,11595,01.191,552
2023-06-16T08:56:42,42.805,6.029,CST-1368DR,4287,4684,11598,01.190,552
2023-06-16T08:59:43,42.805,6.029,CST-1368DR,4287,4684,11598,01.190,552
2023-06-16T09:02:45,42.805,6.029,CST-1368DR,4287,4684,11597,01.190,552
2023-06-16T09:05:46,42.805,6.029,CST-1368DR,4287,4684,11598,01.190,552
2023-06-16T09:08:48,42.805,6.029,CST-1368DR,4287,4682,11594,01.191,552
2023-06-16T09:11:49,42.805,6.029,CST-1368DR,4287,4684,11598,01.190,552
2023-06-16T09:14:51,42.805,6.029,CST-1368DR,4287,4684,11599,01.190,552
2023-06-16T09:17:53,42.805,6.029,CST-1368DR,4287,4684,11597,01.190,552
2023-06-16T09:20:54,42.805,6.029,CST-1368DR,4287,4685,11600,01.189,552
2023-06-16T09:23:56,42.805,6.029,CST-1368DR,4287,4685,11601,01.189,552
2023-06-16T09:26:57,42.805,6.029,CST-1368DR,4287,4686,11602,01.188,552
2023-06-16T09:29:59,42.805,6.029,CST-1368DR,4287,4683,11597,01.190,552
2023-06-16T09:33:01,42.805,6.029,CST-1368DR,4287,4686,11602,01.188,552
2023-06-16T09:36:02,42.805,6.029,CST-1368DR,4287,4685,11601,01.189,552
2023-06-16T09:39:04,42.805,6.029,CST-1368DR,4287,4682,11594,01.191,552
2023-06-16T09:42:05,42.805,6.029,CST-1368DR,4287,4685,11600,01.189,552
2023-06-16T09:45:07,42.805,6.029,CST-1368DR,4287,4684,11597,01.190,552
2023-06-16T09:48:08,42.805,6.029,CST-1368DR,4287,4685,11602,01.188,552
2023-06-16T09:51:10,42.805,6.029,CST-1368DR,4287,4686,11603,01.188,552
2023-06-16T09:54:12,42.805,6.029,CST-1368DR,4287,4685,11602,01.188,552
2023-06-16T09:57:13,42.805,6.029,CST-1368DR,4287,4684,11598,01.190,552
2023-06-16T10:00:15,42.805,6.029,CST-1368DR,4287,4688,11607,01.187,552
2023-06-16T10:03:16,42.805,6.029,CST-1368DR,4287,4686,11602,01.188,552
2023-06-16T10:06:18,42.805,6.029,CST-1368DR,4287,4684,11597,01.190,552
2023-06-16T10:09:20,42.805,6.029,CST-1368DR,4287,4685,11600,01.189,552
2023-06-16T10:12:21,42.805,6.029,CST-1368DR,4287,4684,11598,01.190,552
2023-06-16T10:15:23,42.805,6.029,CST-1368DR,4287,4684,11597,01.190,552
2023-06-16T10:18:24,42.805,6.029,CST-1368DR,4287,4686,11602,01.188,552
2023-06-16T10:21:26,42.805,6.029,CST-1368DR,4287,4686,11602,01.188,552
2023-06-16T10:24:27,42.805,6.029,CST-1368DR,4287,4685,11600,01.189,552
2023-06-16T10:27:29,42.805,6.029,CST-1368DR,4287,4685,11600,01.189,552
2023-06-16T10:30:32,42.805,6.029,CST-1368DR,4287,4685,11600,01.189,552
2023-06-16T10:33:33,42.805,6.029,CST-1368DR,4287,4687,11605,01.187,552
2023-06-16T10:36:35,42.805,6.029,CST-1368DR,4287,4685,11600,01.189,552
2023-06-16T10:39:36,42.805,6.029,CST-1368DR,4287,4685,11601,01.189,552
2023-06-16T10:42:38,42.805,6.029,CST-1368DR,4287,4685,11601,01.189,552
2023-06-16T10:45:39,42.805,6.029,CST-1368DR,4287,4685,11600,01.189,552
2023-06-16T10:48:41,42.805,6.029,CST-1368DR,4287,4686,11604,01.188,552
2023-06-16T10:51:43,42.805,6.029,CST-1368DR,4287,4686,11603,01.188,552
2023-06-16T10:54:44,42.805,6.029,CST-1368DR,4287,4683,11596,01.191,552
2023-06-16T10:57:46,42.805,6.029,CST-1368DR,4287,4682,11592,01.192,552
2023-06-16T11:00:47,42.805,6.029,CST-1368DR,4287,4685,11601,01.189,552
2023-06-16T11:03:49,42.805,6.029,CST-1368DR,4287,4683,11596,01.191,552
2023-06-16T11:06:51,42.805,6.029,CST-1368DR,4287,4686,11603,01.188,552
2023-06-16T11:09:52,42.805,6.029,CST-1368DR,4287,4685,11602,01.188,552
2023-06-16T11:12:54,42.805,6.029,CST-1368DR,4287,4688,11607,01.187,552
2023-06-16T11:15:55,42.805,6.029,CST-1368DR,4287,4683,11595,01.191,552
2023-06-16T11:18:57,42.805,6.029,CST-1368DR,4287,4688,11607,01.187,552
2023-06-16T11:21:58,42.805,6.029,CST-1368DR,4287,4685,11601,01.189,552
2023-06-16T11:25:00,42.805,6.029,CST-1368DR,4287,4687,11605,01.187,552
2023-06-16T11:28:02,42.805,6.029,CST-1368DR,4287,4684,11598,01.190,552
2023-06-16T11:31:03,42.805,6.029,CST-1368DR,4287,4685,11601,01.189,552
2023-06-16T11:34:05,42.805,6.029,CST-1368DR,4287,4686,11603,01.188,552
2023-06-16T11:37:06,42.805,6.029,CST-1368DR,4287,4683,11595,01.191,552
2023-06-16T11:40:08,42.805,6.029,CST-1368DR,4287,4684,11599,01.190,552
2023-06-16T11:43:09,42.805,6.029,CST-1368DR,4287,4683,11597,01.190,552
2023-06-16T11:46:11,42.805,6.029,CST-1368DR,4287,4685,11600,01.189,552
2023-06-16T11:49:13,42.805,6.029,CST-1368DR,4287,4684,11598,01.190,552
2023-06-16T11:52:14,42.805,6.029,CST-1368DR,4287,4685,11601,01.189,552
2023-06-16T12:00:06,42.805,6.029,CST-1368DR,4287,4684,11599,01.190,552
2023-06-16T12:03:08,42.805,6.029,CST-1368DR,4287,4684,11598,01.190,552
2023-06-16T12:06:09,42.805,6.029,CST-1368DR,4287,4684,11599,01.190,552
2023-06-16T12:09:11,42.805,6.029,CST-1368DR,4287,4685,11601,01.189,552
2023-06-16T12:12:12,42.805,6.029,CST-1368DR,4287,4685,11600,01.189,552
2023-06-16T12:15:14,42.805,6.029,CST-1368DR,4287,4685,11600,01.189,552
2023-06-16T12:18:16,42.805,6.029,CST-1368DR,4287,4683,11595,01.191,552
2023-06-16T12:21:17,42.805,6.029,CST-1368DR,4287,4686,11603,01.188,552
2023-06-16T12:24:19,42.805,6.029,CST-1368DR,4287,4684,11599,01.190,552
2023-06-16T12:27:20,42.805,6.029,CST-1368DR,4287,4684,11599,01.190,552
2023-06-16T12:30:22,42.805,6.029,CST-1368DR,4287,4684,11597,01.190,552
2023-06-16T12:33:24,42.805,6.029,CST-1368DR,4287,4684,11597,01.190,552
2023-06-16T12:36:25,42.805,6.029,CST-1368DR,4287,4681,11592,01.192,552
2023-06-16T12:39:27,42.805,6.029,CST-1368DR,4287,4683,11595,01.191,552
2023-06-16T12:42:29,42.805,6.029,CST-1368DR,4287,4683,11596,01.191,552
2023-06-16T12:45:30,42.805,6.029,CST-1368DR,4287,4683,11596,01.191,552
2023-06-16T12:48:32,42.805,6.029,CST-1368DR,4287,4683,11595,01.191,552
2023-06-16T12:51:33,42.805,6.029,CST-1368DR,4287,4684,11597,01.190,552
2023-06-16T12:54:35,42.805,6.029,CST-1368DR,4287,4682,11594,01.191,552
2023-06-16T12:57:36,42.805,6.029,CST-1368DR,4287,4681,11592,01.192,552
2023-06-16T13:00:38,42.805,6.029,CST-1368DR,4287,4682,11592,01.192,552
2023-06-16T13:03:40,42.805,6.029,CST-1368DR,4287,4682,11594,01.191,552
2023-06-16T13:06:41,42.805,6.029,CST-1368DR,4287,4682,11594,01.191,552
2023-06-16T13:09:43,42.805,6.029,CST-1368DR,4287,4682,11594,01.191,552
2023-06-16T13:12:44,42.805,6.029,CST-1368DR,4287,4682,11594,01.191,552
2023-06-16T13:15:46,42.805,6.029,CST-1368DR,4287,4682,11592,01.192,552
2023-06-16T13:18:48,42.805,6.029,CST-1368DR,4287,4681,11591,01.192,552
2023-06-16T13:21:49,42.805,6.029,CST-1368DR,4287,4680,11589,01.193,552
2023-06-16T13:24:51,42.805,6.029,CST-1368DR,4287,4682,11592,01.192,552
2023-06-16T13:27:52,42.805,6.029,CST-1368DR,4287,4680,11587,01.194,552
2023-06-16T13:30:54,42.805,6.029,CST-1368DR,4287,4681,11592,01.192,552
2023-06-16T13:33:55,42.805,6.029,CST-1368DR,4287,4680,11589,01.193,552
2023-06-16T13:36:57,42.805,6.029,CST-1368DR,4287,4680,11588,01.193,552
2023-06-16T13:39:59,42.805,6.029,CST-1368DR,4287,4682,11593,01.192,552
2023-06-16T13:43:00,42.805,6.029,CST-1368DR,4287,4681,11590,01.193,552
2023-06-16T13:46:02,42.805,6.029,CST-1368DR,4287,4683,11595,01.191,552
2023-06-16T13:49:03,42.805,6.029,CST-1368DR,4287,4681,11590,01.193,552
2023-06-16T13:52:05,42.805,6.029,CST-1368DR,4287,4682,11594,01.191,552
2023-06-16T13:55:06,42.805,6.029,CST-1368DR,4287,4682,11592,01.192,552
2023-06-16T13:58:08,42.805,6.029,CST-1368DR,4287,4682,11594,01.191,552
2023-06-16T14:01:10,42.805,6.029,CST-1368DR,4287,4682,11592,01.192,552
2023-06-16T14:04:11,42.805,6.029,CST-1368DR,4287,4682,11594,01.191,552
2023-06-16T14:07:13,42.805,6.029,CST-1368DR,4287,4681,11591,01.192,552
2023-06-16T14:10:14,42.805,6.029,CST-1368DR,4287,4682,11594,01.191,552
2023-06-16T14:13:16,42.805,6.029,CST-1368DR,4287,4683,11595,01.191,552
2023-06-16T14:16:17,42.805,6.029,CST-1368DR,4287,4684,11597,01.190,552
2023-06-16T14:19:19,42.805,6.029,CST-1368DR,4287,4684,11599,01.190,552
2023-06-16T14:22:21,42.805,6.029,CST-1368DR,4287,4685,11601,01.189,552
2023-06-16T14:25:22,42.805,6.029,CST-1368DR,4287,4685,11600,01.189,552
2023-06-16T14:28:24,42.805,6.029,CST-1368DR,4287,4684,11599,01.190,552
2023-06-16T14:31:26,42.805,6.029,CST-1368DR,4287,4683,11595,01.191,552
2023-06-16T14:34:28,42.805,6.029,CST-1368DR,4287,4683,11595,01.191,552
2023-06-16T14:37:29,42.805,6.029,CST-1368DR,4287,4685,11600,01.189,552
2023-06-16T14:40:31,42.805,6.029,CST-1368DR,4287,4681,11592,01.192,552
2023-06-16T14:43:32,42.805,6.029,CST-1368DR,4287,4679,11587,01.194,552
2023-06-16T14:46:34,42.805,6.029,CST-1368DR,4287,4681,11592,01.192,552
2023-06-16T14:49:36,42.805,6.029,CST-1368DR,4287,4679,11587,01.194,552
2023-06-16T14:52:37,42.805,6.029,CST-1368DR,4287,4683,11595,01.191,552
2023-06-16T14:55:39,42.805,6.029,CST-1368DR,4287,4682,11594,01.191,552
2023-06-16T14:58:40,42.805,6.029,CST-1368DR,4287,4682,11594,01.191,552
2023-06-16T15:01:42,42.805,6.029,CST-1368DR,4287,4682,11592,01.192,552
2023-06-16T15:04:44,42.805,6.029,CST-1368DR,4287,4679,11585,01.194,552
2023-06-16T15:07:45,42.805,6.029,CST-1368DR,4287,4682,11592,01.192,552
2023-06-16T15:10:47,42.805,6.029,CST-1368DR,4287,4682,11593,01.192,552
2023-06-16T15:13:48,42.805,6.029,CST-1368DR,4287,4681,11590,01.193,552
2023-06-16T15:16:50,42.805,6.029,CST-1368DR,4287,4681,11592,01.192,552
2023-06-16T15:19:51,42.805,6.029,CST-1368DR,4287,4678,11582,01.195,552
2023-06-16T15:22:53,42.805,6.029,CST-1368DR,4287,4682,11594,01.191,552
2023-06-16T15:25:55,42.805,6.029,CST-1368DR,4287,4681,11592,01.192,552
2023-06-16T15:28:56,42.805,6.029,CST-1368DR,4287,4681,11591,01.192,552
2023-06-16T15:31:58,42.805,6.029,CST-1368DR,4287,4681,11590,01.193,552
2023-06-16T15:34:59,42.805,6.029,CST-1368DR,4287,4680,11589,01.193,552
2023-06-16T15:38:01,42.805,6.029,CST-1368DR,4287,4681,11591,01.192,552
2023-06-16T15:41:02,42.805,6.029,CST-1368DR,4287,4680,11587,01.194,552
2023-06-16T15:44:04,42.805,6.029,CST-1368DR,4287,4681,11590,01.193,552
2023-06-16T15:47:06,42.805,6.029,CST-1368DR,4287,4681,11591,01.192,552
2023-06-16T15:50:07,42.805,6.029,CST-1368DR,4287,4680,11589,01.193,552
2023-06-16T15:53:09,42.805,6.029,CST-1368DR,4287,4679,11587,01.194,552
2023-06-16T15:56:10,42.805,6.029,CST-1368DR,4287,4679,11586,01.194,552
2023-06-16T15:59:12,42.805,6.029,CST-1368DR,4287,4680,11589,01.193,552
2023-06-16T16:02:14,42.805,6.029,CST-1368DR,4286,4679,11589,01.193,552
2023-06-16T16:05:15,42.805,6.029,CST-1368DR,4286,4679,11589,01.193,552
2023-06-16T16:08:17,42.805,6.029,CST-1368DR,4286,4679,11589,01.193,552
2023-06-16T16:11:18,42.805,6.029,CST-1368DR,4286,4679,11589,01.193,552
2023-06-16T16:14:20,42.805,6.029,CST-1368DR,4287,4688,11608,01.186,552
2023-06-16T16:17:21,42.805,6.029,CST-1368DR,4287,4681,11591,01.192,552
2023-06-16T16:20:23,42.805,6.029,CST-1368DR,4287,4682,11592,01.192,552
2023-06-16T16:23:25,42.805,6.029,CST-1368DR,4287,4680,11588,01.193,552
2023-06-16T16:26:26,42.805,6.029,CST-1368DR,4287,4680,11589,01.193,552
2023-06-16T16:29:28,42.805,6.029,CST-1368DR,4287,4681,11590,01.193,552
2023-06-16T16:32:29,42.805,6.029,CST-1368DR,4286,4678,11585,01.194,552
2023-06-16T16:35:31,42.805,6.029,CST-1368DR,4286,4680,11590,01.193,552
2023-06-16T16:38:32,42.805,6.029,CST-1368DR,4286,4676,11581,01.196,552
2023-06-16T16:41:34,42.805,6.029,CST-1368DR,4286,4680,11590,01.193,552